Location: Hope
(40.9110°N, 74.9680°W)
Time: 21:53:17
(UTC-04:00)

Envisat - Visible Passes

Search period start: 22 April 2018 00:00
Search period end: 02 May 2018 00:00
Orbit: 764 x 766 km, 98.2° (Epoch: 22 April)

Date Brightness Start Highest point End Pass type
(mag) Time Alt. Az. Time Alt. Az. Time Alt. Az.
22 Apr 4.7 21:09:10 10° SSW 21:13:40 32° W 21:18:11 10° NNW visible
23 Apr 3.3 20:31:45 10° S 20:36:49 72° WSW 20:41:54 10° NNW visible
24 Apr 5.5 21:36:02 10° SW 21:39:28 18° W 21:42:55 10° NW visible
25 Apr 4.3 20:57:43 10° SSW 21:02:27 40° W 21:07:14 10° NNW visible
26 Apr 3.1 20:20:35 10° SSE 20:25:40 90° W 20:30:47 10° NNW visible
27 Apr 5.2 21:24:15 10° SW 21:28:13 23° W 21:32:12 10° NW visible
28 Apr 3.9 20:46:22 10° S 20:51:16 51° W 20:56:14 10° NNW visible
29 Apr 5.7 21:51:51 10° WSW 21:54:03 13° W 21:56:17 10° WNW visible
30 Apr 4.9 21:12:37 10° SSW 21:16:59 29° W 21:21:22 10° NW visible
01 May 3.5 20:35:04 10° S 20:40:06 65° WSW 20:45:10 10° NNW visible
